Previsão horária em Almenara

Hoje, 22 Janeiro, Sexta-feira

Tempo Temperatura Precipitação Vento Pressão Humidade
00:00 +20°C° 0 mm 0 m/s 746 mmHg 97%
01:00 +20°C° 0 mm 0 m/s 745 mmHg 97%
02:00 +19°C° 0 mm 0 m/s 745 mmHg 97%
03:00 +19°C° 0 mm 0 m/s 745 mmHg 98%
04:00 +19°C° 0 mm 0 m/s 745 mmHg 97%
05:00 +19°C° 0 mm 0 m/s 746 mmHg 97%
06:00 +19°C° 0 mm 0 m/s 746 mmHg 97%
07:00 +24°C° 0 mm 1 m/s 746 mmHg 85%
08:00 +27°C° 0 mm 1 m/s 747 mmHg 73%
09:00 +29°C° 0 mm 1 m/s 747 mmHg 61%
10:00 +31°C° 0 mm 1 m/s 747 mmHg 57%
11:00 +32°C° 0 mm 2 m/s 746 mmHg 52%
12:00 +34°C° 0 mm 2 m/s 746 mmHg 48%
13:00 +33°C° 0.3 mm 3 m/s 746 mmHg 52%
14:00 +33°C° 0.3 mm 3 m/s 745 mmHg 56%
15:00 +31°C° 0.3 mm 3 m/s 745 mmHg 61%
16:00 +29°C° 0.6 mm 3 m/s 745 mmHg 70%
17:00 +27°C° 0.6 mm 2 m/s 745 mmHg 79%
18:00 +25°C° 0.6 mm 1 m/s 745 mmHg 89%
19:00 +25°C° 0 mm 1 m/s 745 mmHg 91%
20:00 +24°C° 0 mm 1 m/s 746 mmHg 93%
21:00 +21°C° 0 mm 0 m/s 746 mmHg 95%
22:00 +21°C° 0 mm 0 m/s 746 mmHg 96%
23:00 +20°C° 0 mm 0 m/s 746 mmHg 97%

Amanhã, 23 Janeiro, Sábado

Tempo Temperatura Precipitação Vento Pressão Humidade
00:00 +20°C° 0 mm 0 m/s 746 mmHg 98%
01:00 +20°C° 0 mm 0 m/s 746 mmHg 98%
02:00 +19°C° 0 mm 0 m/s 745 mmHg 98%
03:00 +19°C° 0 mm 0 m/s 745 mmHg 98%
04:00 +19°C° 0 mm 0 m/s 745 mmHg 98%
05:00 +19°C° 0 mm 0 m/s 746 mmHg 97%
06:00 +21°C° 0 mm 1 m/s 746 mmHg 97%
07:00 +23°C° 0 mm 1 m/s 746 mmHg 86%
08:00 +26°C° 0 mm 1 m/s 747 mmHg 75%
09:00 +28°C° 0 mm 1 m/s 747 mmHg 64%
10:00 +28°C° 0.4 mm 2 m/s 746 mmHg 67%
11:00 +28°C° 0.4 mm 2 m/s 746 mmHg 71%
12:00 +28°C° 0.4 mm 2 m/s 745 mmHg 74%
13:00 +29°C° 0.3 mm 2 m/s 745 mmHg 70%
14:00 +29°C° 0.3 mm 3 m/s 744 mmHg 67%
15:00 +30°C° 0.3 mm 3 m/s 744 mmHg 64%
16:00 +28°C° 0.4 mm 2 m/s 744 mmHg 71%
17:00 +27°C° 0.4 mm 1 m/s 744 mmHg 78%
18:00 +26°C° 0.4 mm 1 m/s 744 mmHg 85%
19:00 +25°C° 0.1 mm 1 m/s 744 mmHg 87%
20:00 +24°C° 0.1 mm 1 m/s 745 mmHg 89%
21:00 +23°C° 0.1 mm 1 m/s 745 mmHg 92%
22:00 +21°C° 0 mm 0 m/s 745 mmHg 93%
23:00 +20°C° 0 mm 0 m/s 745 mmHg 94%

Depois de amanhã, 24 Janeiro, Domingo

Tempo Temperatura Precipitação Vento Pressão Humidade
00:00 +20°C° 0 mm 0 m/s 745 mmHg 96%
01:00 +20°C° 0 mm 0 m/s 744 mmHg 96%
02:00 +20°C° 0 mm 0 m/s 744 mmHg 96%
03:00 +20°C° 0 mm 0 m/s 744 mmHg 96%
04:00 +20°C° 0 mm 0 m/s 744 mmHg 95%
05:00 +20°C° 0 mm 0 m/s 744 mmHg 95%
06:00 +20°C° 0 mm 0 m/s 744 mmHg 95%
07:00 +24°C° 0 mm 1 m/s 745 mmHg 88%
08:00 +25°C° 0 mm 1 m/s 745 mmHg 81%
09:00 +27°C° 0 mm 1 m/s 745 mmHg 73%
10:00 +29°C° 0.1 mm 1 m/s 745 mmHg 68%
11:00 +30°C° 0.1 mm 2 m/s 745 mmHg 63%
12:00 +31°C° 0.1 mm 2 m/s 745 mmHg 58%
13:00 +31°C° 1 mm 2 m/s 744 mmHg 65%
14:00 +30°C° 1 mm 2 m/s 743 mmHg 72%
15:00 +29°C° 1 mm 1 m/s 743 mmHg 79%
16:00 +28°C° 0.7 mm 1 m/s 743 mmHg 83%
17:00 +27°C° 0.7 mm 1 m/s 743 mmHg 87%
18:00 +26°C° 0.7 mm 1 m/s 743 mmHg 91%
19:00 +25°C° 0 mm 1 m/s 743 mmHg 92%
20:00 +25°C° 0 mm 1 m/s 743 mmHg 94%
21:00 +24°C° 0 mm 1 m/s 744 mmHg 95%
22:00 +24°C° 0.1 mm 1 m/s 744 mmHg 96%
23:00 +21°C° 0.1 mm 0 m/s 744 mmHg 97%

25 Janeiro, Segunda-feira

Tempo Temperatura Precipitação Vento Pressão Humidade
00:00 +21°C° 0.1 mm 0 m/s 744 mmHg 97%
01:00 +21°C° 0.1 mm 0 m/s 743 mmHg 97%
02:00 +21°C° 0.1 mm 0 m/s 743 mmHg 98%
03:00 +21°C° 0.1 mm 0 m/s 743 mmHg 98%
04:00 +21°C° 0 mm 0 m/s 743 mmHg 98%
05:00 +21°C° 0 mm 0 m/s 743 mmHg 98%
06:00 +21°C° 0 mm 0 m/s 744 mmHg 98%
07:00 +22°C° 0 mm 0 m/s 744 mmHg 93%
08:00 +23°C° 0 mm 0 m/s 744 mmHg 89%
09:00 +24°C° 0 mm 0 m/s 745 mmHg 84%
10:00 +28°C° 0 mm 1 m/s 744 mmHg 74%
11:00 +31°C° 0 mm 1 m/s 744 mmHg 64%
12:00 +33°C° 0 mm 1 m/s 744 mmHg 54%
13:00 +34°C° 0 mm 2 m/s 743 mmHg 52%
14:00 +34°C° 0 mm 2 m/s 743 mmHg 51%
15:00 +34°C° 0 mm 2 m/s 742 mmHg 49%
16:00 +32°C° 0.1 mm 2 m/s 742 mmHg 57%
17:00 +30°C° 0.1 mm 2 m/s 742 mmHg 65%
18:00 +28°C° 0.1 mm 2 m/s 742 mmHg 73%
19:00 +27°C° 0.1 mm 1 m/s 743 mmHg 80%
20:00 +26°C° 0.1 mm 1 m/s 743 mmHg 87%
21:00 +24°C° 0.1 mm 1 m/s 743 mmHg 94%
22:00 +24°C° 0 mm 1 m/s 743 mmHg 95%
23:00 +21°C° 0 mm 0 m/s 743 mmHg 96%

26 Janeiro, Terça-feira

Tempo Temperatura Precipitação Vento Pressão Humidade
00:00 +21°C° 0 mm 0 m/s 744 mmHg 97%
01:00 +21°C° 0.1 mm 0 m/s 743 mmHg 97%
02:00 +21°C° 0.1 mm 0 m/s 743 mmHg 97%
03:00 +20°C° 0.1 mm 0 m/s 743 mmHg 97%
04:00 +20°C° 0 mm 0 m/s 743 mmHg 97%
05:00 +20°C° 0 mm 0 m/s 744 mmHg 97%
06:00 +20°C° 0 mm 0 m/s 744 mmHg 97%
07:00 +22°C° 0 mm 0 m/s 744 mmHg 87%
08:00 +27°C° 0 mm 1 m/s 745 mmHg 77%
09:00 +29°C° 0 mm 1 m/s 745 mmHg 67%
10:00 +30°C° 0 mm 1 m/s 745 mmHg 61%
11:00 +31°C° 0 mm 1 m/s 744 mmHg 55%
12:00 +34°C° 0 mm 2 m/s 744 mmHg 49%
13:00 +32°C° 0.1 mm 2 m/s 743 mmHg 51%
14:00 +32°C° 0.1 mm 2 m/s 743 mmHg 52%
15:00 +32°C° 0.1 mm 2 m/s 742 mmHg 54%
16:00 +31°C° 0.1 mm 2 m/s 742 mmHg 60%
17:00 +29°C° 0.1 mm 2 m/s 742 mmHg 66%
18:00 +28°C° 0.1 mm 2 m/s 742 mmHg 72%
19:00 +27°C° 0 mm 1 m/s 743 mmHg 78%
20:00 +25°C° 0 mm 1 m/s 743 mmHg 83%
21:00 +24°C° 0 mm 1 m/s 744 mmHg 89%
22:00 +23°C° 0 mm 1 m/s 744 mmHg 92%
23:00 +21°C° 0 mm 0 m/s 744 mmHg 95%

27 Janeiro, Quarta-feira

Tempo Temperatura Precipitação Vento Pressão Humidade
00:00 +20°C° 0 mm 0 m/s 744 mmHg 97%
01:00 +20°C° 0.1 mm 0 m/s 744 mmHg 97%
02:00 +20°C° 0.1 mm 0 m/s 744 mmHg 97%
03:00 +20°C° 0.1 mm 0 m/s 743 mmHg 97%
04:00 +20°C° 0 mm 0 m/s 744 mmHg 97%
05:00 +20°C° 0 mm 0 m/s 744 mmHg 97%
06:00 +20°C° 0 mm 0 m/s 744 mmHg 97%
07:00 +22°C° 0 mm 0 m/s 744 mmHg 86%
08:00 +27°C° 0 mm 1 m/s 745 mmHg 75%
09:00 +29°C° 0 mm 1 m/s 745 mmHg 64%
10:00 +30°C° 0 mm 1 m/s 745 mmHg 59%
11:00 +32°C° 0 mm 1 m/s 744 mmHg 53%
12:00 +34°C° 0 mm 2 m/s 744 mmHg 47%
13:00 +32°C° 0.2 mm 2 m/s 743 mmHg 51%
14:00 +32°C° 0.2 mm 2 m/s 743 mmHg 55%
15:00 +31°C° 0.2 mm 3 m/s 742 mmHg 59%
16:00 +30°C° 0.1 mm 2 m/s 742 mmHg 67%
17:00 +28°C° 0.1 mm 2 m/s 742 mmHg 75%
18:00 +26°C° 0.1 mm 1 m/s 742 mmHg 83%
19:00 +25°C° 0 mm 1 m/s 743 mmHg 87%
20:00 +25°C° 0 mm 1 m/s 743 mmHg 91%
21:00 +22°C° 0 mm 0 m/s 744 mmHg 95%
22:00 +23°C° 0 mm 1 m/s 743 mmHg 96%
23:00 +23°C° 0 mm 1 m/s 743 mmHg 96%
Mostrar mais

Necessitamos do seu Consentimento

A Meteoprog e os seus Fornecedores de Serviços podem armazenar e aceder a dados pessoais como cookies, identificadores do dispositivo ou outras tecnologias semelhantes existentes no seu dispositivo e processar estes dados para personalizar conteúdos e anúncios, assim como funcionalidades nas redes sociais e análise de tráfego.

  • Armazenar e/ou aceder a informações no seu dispositivo

    Os cookies, identificadores do dispositivo ou outras informações podem ser armazenados ou acedidos no seu dispositivo, para os fins acima indicados.

  • Anúncios e conteúdos personalizados, medição de anúncios e conteúdos, dados sobre o público-alvo e desenvolvimento de produtos

    Os anúncios e os conteúdos podem ser personalizados com base num perfil. Podem ser adicionados dados adicionais para uma maior personalização dos anúncios e dos conteúdos. A eficácia dos anúncios e dos conteúdos pode ser medida. Podem ser obtidas informações sobre o público que visualizou os anúncios e os conteúdos. Estes dados podem ser usados para desenvolver ou melhorar sistemas, softwares ou a experiência do utilizador.

Ao clicar em "Eu concordo”, permitirá o uso de cookies, identificadores do dispositivo e web beacons mencionados ou outras tecnologias semelhantes. As configurações do navegador do seu dispositivo podem ser alteradas.

Para certos fins, podem ser invocados interesses legítimos ao invés de consentimento. Pode ler mais informação sobre este assunto na nossa Política de Privacidade e Cookies.